owner,sensor,date,latitude,longitude,vertical_datum,sea_water_practical_salinity,qcFlag 
SCCF RECON,ioos:station:SCCF:51:1,2010-11-01T00:00:00Z,26.5545,-82.1715,1.89,34.14,1111122 
SCCF RECON,ioos:station:SCCF:51:1,2010-11-01T01:00:00Z,26.5545,-82.1715,1.952,34.08,1111122 
SCCF RECON,ioos:station:SCCF:51:1,2010-11-01T02:00:00Z,26.5545,-82.1715,1.983,34.1,1111122 
SCCF RECON,ioos:station:SCCF:51:1,2010-11-01T03:00:00Z,26.5545,-82.1715,1.971,34.01,1111122 
SCCF RECON,ioos:station:SCCF:51:1,2010-11-01T04:00:00Z,26.5545,-82.1715,1.925,33.77,1111122 
SCCF RECON,ioos:station:SCCF:51:1,2010-11-01T05:00:00Z,26.5545,-82.1715,1.85,33.8,1111122 
SCCF RECON,ioos:station:SCCF:51:1,2010-11-01T06:00:00Z,26.5545,-82.1715,1.77,33.7,1111122 
SCCF RECON,ioos:station:SCCF:51:1,2010-11-01T07:00:00Z,26.5545,-82.1715,1.71,33.48,1111122 
SCCF RECON,ioos:station:SCCF:51:1,2010-11-01T08:00:00Z,26.5545,-82.1715,1.69,33.77,1111122 
SCCF RECON,ioos:station:SCCF:51:1,2010-11-01T09:00:00Z,26.5545,-82.1715,1.72,33.75,1111122 
SCCF RECON,ioos:station:SCCF:51:1,2010-11-01T10:00:00Z,26.5545,-82.1715,1.79,34.01,1111122 
SCCF RECON,ioos:station:SCCF:51:1,2010-11-01T11:00:00Z,26.5545,-82.1715,1.883,33.96,1111122 
SCCF RECON,ioos:station:SCCF:51:1,2010-11-01T12:00:00Z,26.5545,-82.1715,1.97,34.18,1111122 
SCCF RECON,ioos:station:SCCF:51:1,2010-11-01T13:00:00Z,26.5545,-82.1715,2.022,34.16,1111122 
SCCF RECON,ioos:station:SCCF:51:1,2010-11-01T14:00:00Z,26.5545,-82.1715,2.021,34.16,1111122 
SCCF RECON,ioos:station:SCCF:51:1,2010-11-01T15:00:00Z,26.5545,-82.1715,1.971,34.06,1111122 
SCCF RECON,ioos:station:SCCF:51:1,2010-11-01T16:00:00Z,26.5545,-82.1715,1.898,34.0,1111122 
SCCF RECON,ioos:station:SCCF:51:1,2010-11-01T17:00:00Z,26.5545,-82.1715,1.804,33.83,1111122 
SCCF RECON,ioos:station:SCCF:51:1,2010-11-01T18:00:00Z,26.5545,-82.1715,1.69,33.7,1111122 
SCCF RECON,ioos:station:SCCF:51:1,2010-11-01T19:00:00Z,26.5545,-82.1715,1.602,33.74,1111122 
SCCF RECON,ioos:station:SCCF:51:1,2010-11-01T20:00:00Z,26.5545,-82.1715,1.56,33.67,1111122 
SCCF RECON,ioos:station:SCCF:51:1,2010-11-01T21:00:00Z,26.5545,-82.1715,1.59,33.55,1111122 
SCCF RECON,ioos:station:SCCF:51:1,2010-11-01T22:00:00Z,26.5545,-82.1715,1.659,33.91,1111122 
SCCF RECON,ioos:station:SCCF:51:1,2010-11-01T23:00:00Z,26.5545,-82.1715,1.756,33.96,1111122 
SCCF RECON,ioos:station:SCCF:51:1,2010-11-02T00:00:00Z,26.5545,-82.1715,1.866,34.32,1111122 
SCCF RECON,ioos:station:SCCF:51:1,2010-11-02T01:00:00Z,26.5545,-82.1715,1.962,34.35,1111122 
SCCF RECON,ioos:station:SCCF:51:1,2010-11-02T02:00:00Z,26.5545,-82.1715,2.015,34.34,1111122 
SCCF RECON,ioos:station:SCCF:51:1,2010-11-02T03:00:00Z,26.5545,-82.1715,2.015,34.26,1111122 
SCCF RECON,ioos:station:SCCF:51:1,2010-11-02T04:00:00Z,26.5545,-82.1715,1.949,34.17,1111122 
SCCF RECON,ioos:station:SCCF:51:1,2010-11-02T05:00:00Z,26.5545,-82.1715,1.87,33.85,1111122 
SCCF RECON,ioos:station:SCCF:51:1,2010-11-02T06:00:00Z,26.5545,-82.1715,1.769,33.37,1111122 
SCCF RECON,ioos:station:SCCF:51:1,2010-11-02T07:00:00Z,26.5545,-82.1715,1.653,33.04,1111122 
SCCF RECON,ioos:station:SCCF:51:1,2010-11-02T08:00:00Z,26.5545,-82.1715,1.561,32.92,1111122 
SCCF RECON,ioos:station:SCCF:51:1,2010-11-02T09:00:00Z,26.5545,-82.1715,1.516,32.87,1111122 
SCCF RECON,ioos:station:SCCF:51:1,2010-11-02T10:00:00Z,26.5545,-82.1715,1.544,32.85,1111122 
SCCF RECON,ioos:station:SCCF:51:1,2010-11-02T11:00:00Z,26.5545,-82.1715,1.634,32.96,1111122 
SCCF RECON,ioos:station:SCCF:51:1,2010-11-02T12:00:00Z,26.5545,-82.1715,1.751,33.68,1111122 
SCCF RECON,ioos:station:SCCF:51:1,2010-11-02T13:00:00Z,26.5545,-82.1715,1.863,33.75,1111122 
SCCF RECON,ioos:station:SCCF:51:1,2010-11-02T14:00:00Z,26.5545,-82.1715,1.943,33.74,1111122 
SCCF RECON,ioos:station:SCCF:51:1,2010-11-02T15:00:00Z,26.5545,-82.1715,1.976,33.44,1111122 
SCCF RECON,ioos:station:SCCF:51:1,2010-11-02T16:00:00Z,26.5545,-82.1715,1.917,33.43,1111122 
SCCF RECON,ioos:station:SCCF:51:1,2010-11-02T17:00:00Z,26.5545,-82.1715,1.847,33.07,1111122 
SCCF RECON,ioos:station:SCCF:51:1,2010-11-02T18:00:00Z,26.5545,-82.1715,1.758,32.68,1111122 
SCCF RECON,ioos:station:SCCF:51:1,2010-11-02T19:00:00Z,26.5545,-82.1715,1.656,32.99,1111122 
SCCF RECON,ioos:station:SCCF:51:1,2010-11-02T20:00:00Z,26.5545,-82.1715,1.58,32.9,1111122 
SCCF RECON,ioos:station:SCCF:51:1,2010-11-02T21:00:00Z,26.5545,-82.1715,1.563,32.96,1111122 
SCCF RECON,ioos:station:SCCF:51:1,2010-11-02T22:00:00Z,26.5545,-82.1715,1.62,32.89,1111122 
SCCF RECON,ioos:station:SCCF:51:1,2010-11-02T23:00:00Z,26.5545,-82.1715,1.71,32.88,1111122 
SCCF RECON,ioos:station:SCCF:51:1,2010-11-03T00:00:00Z,26.5545,-82.1715,1.822,33.8,1111122 
SCCF RECON,ioos:station:SCCF:51:1,2010-11-03T01:00:00Z,26.5545,-82.1715,1.95,34.13,1111122 
SCCF RECON,ioos:station:SCCF:51:1,2010-11-03T02:00:00Z,26.5545,-82.1715,2.049,33.88,1111122 
SCCF RECON,ioos:station:SCCF:51:1,2010-11-03T03:00:00Z,26.5545,-82.1715,2.1,34.03,1111122 
SCCF RECON,ioos:station:SCCF:51:1,2010-11-03T04:00:00Z,26.5545,-82.1715,2.065,33.59,1111122 
SCCF RECON,ioos:station:SCCF:51:1,2010-11-03T05:00:00Z,26.5545,-82.1715,1.97,33.26,1111122 
SCCF RECON,ioos:station:SCCF:51:1,2010-11-03T06:00:00Z,26.5545,-82.1715,1.844,33.3,1111122 
SCCF RECON,ioos:station:SCCF:51:1,2010-11-03T07:00:00Z,26.5545,-82.1715,1.71,33.05,1111122 
SCCF RECON,ioos:station:SCCF:51:1,2010-11-03T08:00:00Z,26.5545,-82.1715,1.594,32.92,1111122 
SCCF RECON,ioos:station:SCCF:51:1,2010-11-03T09:00:00Z,26.5545,-82.1715,1.505,32.98,1111122 
SCCF RECON,ioos:station:SCCF:51:1,2010-11-03T10:00:00Z,26.5545,-82.1715,1.479,32.98,1111122 
SCCF RECON,ioos:station:SCCF:51:1,2010-11-03T11:00:00Z,26.5545,-82.1715,1.536,33.04,1111122 
SCCF RECON,ioos:station:SCCF:51:1,2010-11-03T12:00:00Z,26.5545,-82.1715,1.639,33.14,1111122 
SCCF RECON,ioos:station:SCCF:51:1,2010-11-03T13:00:00Z,26.5545,-82.1715,1.769,33.62,1111122 
SCCF RECON,ioos:station:SCCF:51:1,2010-11-03T14:00:00Z,26.5545,-82.1715,1.891,33.68,1111122 
SCCF RECON,ioos:station:SCCF:51:1,2010-11-03T15:00:00Z,26.5545,-82.1715,1.969,33.82,1111122 
SCCF RECON,ioos:station:SCCF:51:1,2010-11-03T16:00:00Z,26.5545,-82.1715,2.003,34.03,1111122 
SCCF RECON,ioos:station:SCCF:51:1,2010-11-03T17:00:00Z,26.5545,-82.1715,1.953,33.45,1111122 
SCCF RECON,ioos:station:SCCF:51:1,2010-11-03T18:00:00Z,26.5545,-82.1715,1.87,33.34,1111122 
SCCF RECON,ioos:station:SCCF:51:1,2010-11-03T19:00:00Z,26.5545,-82.1715,1.789,33.15,1111122 
SCCF RECON,ioos:station:SCCF:51:1,2010-11-03T20:00:00Z,26.5545,-82.1715,1.703,33.13,1111122 
SCCF RECON,ioos:station:SCCF:51:1,2010-11-03T21:00:00Z,26.5545,-82.1715,1.664,33.37,1111122 
SCCF RECON,ioos:station:SCCF:51:1,2010-11-03T22:00:00Z,26.5545,-82.1715,1.672,33.0,1111122 
SCCF RECON,ioos:station:SCCF:51:1,2010-11-03T23:00:00Z,26.5545,-82.1715,1.738,33.02,1111122 
SCCF RECON,ioos:station:SCCF:51:1,2010-11-04T00:00:00Z,26.5545,-82.1715,1.84,33.5,1111122 
SCCF RECON,ioos:station:SCCF:51:1,2010-11-04T01:00:00Z,26.5545,-82.1715,1.982,34.15,1111122 
SCCF RECON,ioos:station:SCCF:51:1,2010-11-04T02:00:00Z,26.5545,-82.1715,2.068,34.08,1111122 
SCCF RECON,ioos:station:SCCF:51:1,2010-11-04T03:00:00Z,26.5545,-82.1715,2.119,34.0,1111122 
SCCF RECON,ioos:station:SCCF:51:1,2010-11-04T04:00:00Z,26.5545,-82.1715,2.109,33.57,1111122 
SCCF RECON,ioos:station:SCCF:51:1,2010-11-04T05:00:00Z,26.5545,-82.1715,2.053,33.38,1111122 
SCCF RECON,ioos:station:SCCF:51:1,2010-11-04T06:00:00Z,26.5545,-82.1715,1.941,33.21,1111122 
SCCF RECON,ioos:station:SCCF:51:1,2010-11-04T07:00:00Z,26.5545,-82.1715,1.817,32.81,1111122 
SCCF RECON,ioos:station:SCCF:51:1,2010-11-04T08:00:00Z,26.5545,-82.1715,1.69,32.42,1111122 
SCCF RECON,ioos:station:SCCF:51:1,2010-11-04T09:00:00Z,26.5545,-82.1715,1.561,31.73,1111122 
SCCF RECON,ioos:station:SCCF:51:1,2010-11-04T10:00:00Z,26.5545,-82.1715,1.45,31.53,1111122 
SCCF RECON,ioos:station:SCCF:51:1,2010-11-04T11:00:00Z,26.5545,-82.1715,1.43,31.77,1111122 
SCCF RECON,ioos:station:SCCF:51:1,2010-11-04T12:00:00Z,26.5545,-82.1715,1.519,31.88,1111122 
SCCF RECON,ioos:station:SCCF:51:1,2010-11-04T13:00:00Z,26.5545,-82.1715,1.669,32.98,1111122 
SCCF RECON,ioos:station:SCCF:51:1,2010-11-04T14:00:00Z,26.5545,-82.1715,1.839,33.56,1111122 
SCCF RECON,ioos:station:SCCF:51:1,2010-11-04T15:00:00Z,26.5545,-82.1715,1.978,33.67,1111122 
SCCF RECON,ioos:station:SCCF:51:1,2010-11-04T16:00:00Z,26.5545,-82.1715,2.059,33.71,1111122 
SCCF RECON,ioos:station:SCCF:51:1,2010-11-04T17:00:00Z,26.5545,-82.1715,2.106,34.02,1111122 
SCCF RECON,ioos:station:SCCF:51:1,2010-11-04T18:00:00Z,26.5545,-82.1715,2.069,33.93,1111122 
SCCF RECON,ioos:station:SCCF:51:1,2010-11-04T19:00:00Z,26.5545,-82.1715,2.014,33.64,1111122 
SCCF RECON,ioos:station:SCCF:51:1,2010-11-04T20:00:00Z,26.5545,-82.1715,1.89,32.22,1111122 
SCCF RECON,ioos:station:SCCF:51:1,2010-11-04T21:00:00Z,26.5545,-82.1715,1.81,31.93,1111122 
SCCF RECON,ioos:station:SCCF:51:1,2010-11-04T22:00:00Z,26.5545,-82.1715,1.802,31.97,1111122 
SCCF RECON,ioos:station:SCCF:51:1,2010-11-04T23:00:00Z,26.5545,-82.1715,1.872,31.92,1111122 
SCCF RECON,ioos:station:SCCF:51:1,2010-11-05T00:00:00Z,26.5545,-82.1715,1.925,32.8,1111122 
SCCF RECON,ioos:station:SCCF:51:1,2010-11-05T01:00:00Z,26.5545,-82.1715,2.01,33.41,1111122 
SCCF RECON,ioos:station:SCCF:51:1,2010-11-05T02:00:00Z,26.5545,-82.1715,2.133,33.76,1111122 
SCCF RECON,ioos:station:SCCF:51:1,2010-11-05T03:00:00Z,26.5545,-82.1715,2.216,33.86,1111122 
SCCF RECON,ioos:station:SCCF:51:1,2010-11-05T04:00:00Z,26.5545,-82.1715,2.271,33.69,1111122 
SCCF RECON,ioos:station:SCCF:51:1,2010-11-05T05:00:00Z,26.5545,-82.1715,2.24,33.7,1111122 
SCCF RECON,ioos:station:SCCF:51:1,2010-11-05T06:00:00Z,26.5545,-82.1715,2.16,33.85,1111122 
SCCF RECON,ioos:station:SCCF:51:1,2010-11-05T07:00:00Z,26.5545,-82.1715,2.005,33.62,1111122 
SCCF RECON,ioos:station:SCCF:51:1,2010-11-05T08:00:00Z,26.5545,-82.1715,1.839,33.54,1111122 
SCCF RECON,ioos:station:SCCF:51:1,2010-11-05T09:00:00Z,26.5545,-82.1715,1.705,32.75,1111122 
SCCF RECON,ioos:station:SCCF:51:1,2010-11-05T10:00:00Z,26.5545,-82.1715,1.548,32.47,1111122 
SCCF RECON,ioos:station:SCCF:51:1,2010-11-05T11:00:00Z,26.5545,-82.1715,1.436,32.67,1111122 
SCCF RECON,ioos:station:SCCF:51:1,2010-11-05T12:00:00Z,26.5545,-82.1715,1.363,32.71,1111122 
SCCF RECON,ioos:station:SCCF:51:1,2010-11-05T13:00:00Z,26.5545,-82.1715,1.383,32.79,1111122 
SCCF RECON,ioos:station:SCCF:51:1,2010-11-05T14:00:00Z,26.5545,-82.1715,1.467,32.91,1111122 
SCCF RECON,ioos:station:SCCF:51:1,2010-11-05T15:00:00Z,26.5545,-82.1715,1.577,33.24,1111122 
SCCF RECON,ioos:station:SCCF:51:1,2010-11-05T16:00:00Z,26.5545,-82.1715,1.688,33.27,1111122 
SCCF RECON,ioos:station:SCCF:51:1,2010-11-05T17:00:00Z,26.5545,-82.1715,1.763,33.25,1111122 
SCCF RECON,ioos:station:SCCF:51:1,2010-11-05T18:00:00Z,26.5545,-82.1715,1.794,33.35,1111122 
SCCF RECON,ioos:station:SCCF:51:1,2010-11-05T19:00:00Z,26.5545,-82.1715,1.74,33.38,1111122 
SCCF RECON,ioos:station:SCCF:51:1,2010-11-05T20:00:00Z,26.5545,-82.1715,1.663,33.36,1111122 
SCCF RECON,ioos:station:SCCF:51:1,2010-11-05T21:00:00Z,26.5545,-82.1715,1.605,33.44,1111122 
SCCF RECON,ioos:station:SCCF:51:1,2010-11-05T22:00:00Z,26.5545,-82.1715,1.567,33.58,1111122 
SCCF RECON,ioos:station:SCCF:51:1,2010-11-05T23:00:00Z,26.5545,-82.1715,1.583,33.48,1111122 
SCCF RECON,ioos:station:SCCF:51:1,2010-11-06T00:00:00Z,26.5545,-82.1715,1.658,33.24,1111122 
SCCF RECON,ioos:station:SCCF:51:1,2010-11-06T01:00:00Z,26.5545,-82.1715,1.737,33.41,1111122 
SCCF RECON,ioos:station:SCCF:51:1,2010-11-06T02:00:00Z,26.5545,-82.1715,1.848,33.44,1111122 
SCCF RECON,ioos:station:SCCF:51:1,2010-11-06T03:00:00Z,26.5545,-82.1715,1.987,34.11,1111122 
SCCF RECON,ioos:station:SCCF:51:1,2010-11-06T04:00:00Z,26.5545,-82.1715,2.08,34.14,1111122 
SCCF RECON,ioos:station:SCCF:51:1,2010-11-06T05:00:00Z,26.5545,-82.1715,2.07,34.14,1111122 
SCCF RECON,ioos:station:SCCF:51:1,2010-11-06T06:00:00Z,26.5545,-82.1715,1.994,34.09,1111122 
SCCF RECON,ioos:station:SCCF:51:1,2010-11-06T07:00:00Z,26.5545,-82.1715,1.876,33.54,1111122 
SCCF RECON,ioos:station:SCCF:51:1,2010-11-06T08:00:00Z,26.5545,-82.1715,1.737,33.42,1111122 
SCCF RECON,ioos:station:SCCF:51:1,2010-11-06T09:00:00Z,26.5545,-82.1715,1.605,33.17,1111122 
SCCF RECON,ioos:station:SCCF:51:1,2010-11-06T10:00:00Z,26.5545,-82.1715,1.494,33.29,1111122 
SCCF RECON,ioos:station:SCCF:51:1,2010-11-06T11:00:00Z,26.5545,-82.1715,1.383,33.42,1111122 
SCCF RECON,ioos:station:SCCF:51:1,2010-11-06T12:00:00Z,26.5545,-82.1715,1.303,33.4,1111122 
SCCF RECON,ioos:station:SCCF:51:1,2010-11-06T13:00:00Z,26.5545,-82.1715,1.279,33.18,1111122 
SCCF RECON,ioos:station:SCCF:51:1,2010-11-06T14:00:00Z,26.5545,-82.1715,1.339,33.26,1111122 
SCCF RECON,ioos:station:SCCF:51:1,2010-11-06T15:00:00Z,26.5545,-82.1715,1.438,33.38,1111122 
SCCF RECON,ioos:station:SCCF:51:1,2010-11-06T16:00:00Z,26.5545,-82.1715,1.555,33.79,1111122 
SCCF RECON,ioos:station:SCCF:51:1,2010-11-06T17:00:00Z,26.5545,-82.1715,1.662,33.79,1111122 
SCCF RECON,ioos:station:SCCF:51:1,2010-11-06T18:00:00Z,26.5545,-82.1715,1.731,33.58,1111122 
SCCF RECON,ioos:station:SCCF:51:1,2010-11-06T19:00:00Z,26.5545,-82.1715,1.756,33.33,1111122 
SCCF RECON,ioos:station:SCCF:51:1,2010-11-06T20:00:00Z,26.5545,-82.1715,1.718,33.43,1111122 
SCCF RECON,ioos:station:SCCF:51:1,2010-11-06T21:00:00Z,26.5545,-82.1715,1.648,33.61,1111122 
SCCF RECON,ioos:station:SCCF:51:1,2010-11-06T22:00:00Z,26.5545,-82.1715,1.602,33.79,1111122 
SCCF RECON,ioos:station:SCCF:51:1,2010-11-06T23:00:00Z,26.5545,-82.1715,1.597,33.9,1111122 
SCCF RECON,ioos:station:SCCF:51:1,2010-11-07T00:00:00Z,26.5545,-82.1715,1.644,33.85,1111122 
SCCF RECON,ioos:station:SCCF:51:1,2010-11-07T01:00:00Z,26.5545,-82.1715,1.708,33.33,1111122 
SCCF RECON,ioos:station:SCCF:51:1,2010-11-07T02:00:00Z,26.5545,-82.1715,1.801,33.13,1111122 
SCCF RECON,ioos:station:SCCF:51:1,2010-11-07T03:00:00Z,26.5545,-82.1715,1.896,32.94,1111122 
SCCF RECON,ioos:station:SCCF:51:1,2010-11-07T04:00:00Z,26.5545,-82.1715,1.976,33.22,1111122 
SCCF RECON,ioos:station:SCCF:51:1,2010-11-07T05:00:00Z,26.5545,-82.1715,2.024,33.24,1111122 
SCCF RECON,ioos:station:SCCF:51:1,2010-11-07T06:00:00Z,26.5545,-82.1715,1.976,33.44,1111122 
SCCF RECON,ioos:station:SCCF:51:1,2010-11-07T07:00:00Z,26.5545,-82.1715,1.877,33.14,1111122 
SCCF RECON,ioos:station:SCCF:51:1,2010-11-07T08:00:00Z,26.5545,-82.1715,1.744,32.76,1111122 
SCCF RECON,ioos:station:SCCF:51:1,2010-11-07T09:00:00Z,26.5545,-82.1715,1.611,32.58,1111122 
SCCF RECON,ioos:station:SCCF:51:1,2010-11-07T10:00:00Z,26.5545,-82.1715,1.497,32.78,1111122 
SCCF RECON,ioos:station:SCCF:51:1,2010-11-07T11:00:00Z,26.5545,-82.1715,1.392,32.68,1111122 
SCCF RECON,ioos:station:SCCF:51:1,2010-11-07T12:00:00Z,26.5545,-82.1715,1.296,32.58,1111122 
SCCF RECON,ioos:station:SCCF:51:1,2010-11-07T13:00:00Z,26.5545,-82.1715,1.224,32.27,1111122 
SCCF RECON,ioos:station:SCCF:51:1,2010-11-07T14:00:00Z,26.5545,-82.1715,1.238,32.62,1111122 
SCCF RECON,ioos:station:SCCF:51:1,2010-11-07T15:00:00Z,26.5545,-82.1715,1.318,32.39,1111122 
SCCF RECON,ioos:station:SCCF:51:1,2010-11-07T16:00:00Z,26.5545,-82.1715,1.424,33.56,1111122 
SCCF RECON,ioos:station:SCCF:51:1,2010-11-07T17:00:00Z,26.5545,-82.1715,1.55,34.18,1111122 
SCCF RECON,ioos:station:SCCF:51:1,2010-11-07T18:00:00Z,26.5545,-82.1715,1.657,33.48,1111122 
SCCF RECON,ioos:station:SCCF:51:1,2010-11-07T19:00:00Z,26.5545,-82.1715,1.723,33.19,1111122 
SCCF RECON,ioos:station:SCCF:51:1,2010-11-07T20:00:00Z,26.5545,-82.1715,1.766,33.16,1111122 
SCCF RECON,ioos:station:SCCF:51:1,2010-11-07T21:00:00Z,26.5545,-82.1715,1.749,33.39,1111122 
SCCF RECON,ioos:station:SCCF:51:1,2010-11-07T22:00:00Z,26.5545,-82.1715,1.702,33.66,1111122 
SCCF RECON,ioos:station:SCCF:51:1,2010-11-07T23:00:00Z,26.5545,-82.1715,1.694,33.64,1111122 
SCCF RECON,ioos:station:SCCF:51:1,2010-11-08T00:00:00Z,26.5545,-82.1715,1.72,33.55,1111122 
SCCF RECON,ioos:station:SCCF:51:1,2010-11-08T01:00:00Z,26.5545,-82.1715,1.744,33.37,1111122 
SCCF RECON,ioos:station:SCCF:51:1,2010-11-08T02:00:00Z,26.5545,-82.1715,1.807,33.34,1111122 
SCCF RECON,ioos:station:SCCF:51:1,2010-11-08T03:00:00Z,26.5545,-82.1715,1.873,33.57,1111122 
SCCF RECON,ioos:station:SCCF:51:1,2010-11-08T04:00:00Z,26.5545,-82.1715,1.943,33.0,1111122 
SCCF RECON,ioos:station:SCCF:51:1,2010-11-08T05:00:00Z,26.5545,-82.1715,1.999,33.07,1111122 
SCCF RECON,ioos:station:SCCF:51:1,2010-11-08T06:00:00Z,26.5545,-82.1715,2.0,32.9,1111122 
SCCF RECON,ioos:station:SCCF:51:1,2010-11-08T07:00:00Z,26.5545,-82.1715,1.933,32.89,1111122 
SCCF RECON,ioos:station:SCCF:51:1,2010-11-08T08:00:00Z,26.5545,-82.1715,1.823,32.74,1111122 
SCCF RECON,ioos:station:SCCF:51:1,2010-11-08T09:00:00Z,26.5545,-82.1715,1.698,33.34,1111122 
SCCF RECON,ioos:station:SCCF:51:1,2010-11-08T10:00:00Z,26.5545,-82.1715,1.57,33.66,1111122 
SCCF RECON,ioos:station:SCCF:51:1,2010-11-08T11:00:00Z,26.5545,-82.1715,1.45,33.8,1111122 
SCCF RECON,ioos:station:SCCF:51:1,2010-11-08T12:00:00Z,26.5545,-82.1715,1.338,33.6,1111122 
SCCF RECON,ioos:station:SCCF:51:1,2010-11-08T13:00:00Z,26.5545,-82.1715,1.252,33.31,1111122 
SCCF RECON,ioos:station:SCCF:51:1,2010-11-08T14:00:00Z,26.5545,-82.1715,1.202,33.23,1111122 
SCCF RECON,ioos:station:SCCF:51:1,2010-11-08T15:00:00Z,26.5545,-82.1715,1.246,33.28,1111122 
SCCF RECON,ioos:station:SCCF:51:1,2010-11-08T16:00:00Z,26.5545,-82.1715,1.35,32.51,1111122 
SCCF RECON,ioos:station:SCCF:51:1,2010-11-08T17:00:00Z,26.5545,-82.1715,1.489,33.34,1111122 
SCCF RECON,ioos:station:SCCF:51:1,2010-11-08T18:00:00Z,26.5545,-82.1715,1.622,34.02,1111122 
SCCF RECON,ioos:station:SCCF:51:1,2010-11-08T19:00:00Z,26.5545,-82.1715,1.718,33.93,1111122 
SCCF RECON,ioos:station:SCCF:51:1,2010-11-08T20:00:00Z,26.5545,-82.1715,1.782,33.7,1111122 
SCCF RECON,ioos:station:SCCF:51:1,2010-11-08T21:00:00Z,26.5545,-82.1715,1.795,33.73,1111122 
SCCF RECON,ioos:station:SCCF:51:1,2010-11-08T22:00:00Z,26.5545,-82.1715,1.774,33.69,1111122 
SCCF RECON,ioos:station:SCCF:51:1,2010-11-08T23:00:00Z,26.5545,-82.1715,1.747,33.67,1111122 
SCCF RECON,ioos:station:SCCF:51:1,2010-11-09T00:00:00Z,26.5545,-82.1715,1.756,33.64,1111122 
SCCF RECON,ioos:station:SCCF:51:1,2010-11-09T01:00:00Z,26.5545,-82.1715,1.785,33.53,1111122 
SCCF RECON,ioos:station:SCCF:51:1,2010-11-09T02:00:00Z,26.5545,-82.1715,1.845,33.24,1111122 
SCCF RECON,ioos:station:SCCF:51:1,2010-11-09T03:00:00Z,26.5545,-82.1715,1.919,33.83,1111122 
SCCF RECON,ioos:station:SCCF:51:1,2010-11-09T04:00:00Z,26.5545,-82.1715,2.007,33.12,1111122 
SCCF RECON,ioos:station:SCCF:51:1,2010-11-09T05:00:00Z,26.5545,-82.1715,2.096,33.33,1111122 
SCCF RECON,ioos:station:SCCF:51:1,2010-11-09T06:00:00Z,26.5545,-82.1715,2.153,33.81,1111122 
SCCF RECON,ioos:station:SCCF:51:1,2010-11-09T07:00:00Z,26.5545,-82.1715,2.141,33.85,1111122 
SCCF RECON,ioos:station:SCCF:51:1,2010-11-09T08:00:00Z,26.5545,-82.1715,2.072,33.43,1111122 
SCCF RECON,ioos:station:SCCF:51:1,2010-11-09T09:00:00Z,26.5545,-82.1715,1.968,33.21,1111122 
SCCF RECON,ioos:station:SCCF:51:1,2010-11-09T10:00:00Z,26.5545,-82.1715,1.84,33.2,1111122 
SCCF RECON,ioos:station:SCCF:51:1,2010-11-09T11:00:00Z,26.5545,-82.1715,1.712,33.49,1111122 
SCCF RECON,ioos:station:SCCF:51:1,2010-11-09T12:00:00Z,26.5545,-82.1715,1.595,33.39,1111122 
SCCF RECON,ioos:station:SCCF:51:1,2010-11-09T13:00:00Z,26.5545,-82.1715,1.489,33.19,1111122 
SCCF RECON,ioos:station:SCCF:51:1,2010-11-09T14:00:00Z,26.5545,-82.1715,1.403,33.2,1111122 
SCCF RECON,ioos:station:SCCF:51:1,2010-11-09T15:00:00Z,26.5545,-82.1715,1.368,32.97,1111122 
SCCF RECON,ioos:station:SCCF:51:1,2010-11-09T16:00:00Z,26.5545,-82.1715,1.426,32.98,1111122 
SCCF RECON,ioos:station:SCCF:51:1,2010-11-09T17:00:00Z,26.5545,-82.1715,1.52,33.11,1111122 
SCCF RECON,ioos:station:SCCF:51:1,2010-11-09T18:00:00Z,26.5545,-82.1715,1.63,33.44,1111122 
SCCF RECON,ioos:station:SCCF:51:1,2010-11-09T19:00:00Z,26.5545,-82.1715,1.722,33.73,1111122 
SCCF RECON,ioos:station:SCCF:51:1,2010-11-09T20:00:00Z,26.5545,-82.1715,1.78,33.45,1111122 
SCCF RECON,ioos:station:SCCF:51:1,2010-11-09T21:00:00Z,26.5545,-82.1715,1.804,33.78,1111122 
SCCF RECON,ioos:station:SCCF:51:1,2010-11-09T22:00:00Z,26.5545,-82.1715,1.799,33.77,1111122 
SCCF RECON,ioos:station:SCCF:51:1,2010-11-09T23:00:00Z,26.5545,-82.1715,1.78,33.45,1111122 
SCCF RECON,ioos:station:SCCF:51:1,2010-11-10T00:00:00Z,26.5545,-82.1715,1.77,33.34,1111122 
SCCF RECON,ioos:station:SCCF:51:1,2010-11-10T01:00:00Z,26.5545,-82.1715,1.78,33.36,1111122 
SCCF RECON,ioos:station:SCCF:51:1,2010-11-10T02:00:00Z,26.5545,-82.1715,1.81,33.68,1111122 
SCCF RECON,ioos:station:SCCF:51:1,2010-11-10T03:00:00Z,26.5545,-82.1715,1.86,33.82,1111122 
SCCF RECON,ioos:station:SCCF:51:1,2010-11-10T04:00:00Z,26.5545,-82.1715,1.92,33.57,1111122 
SCCF RECON,ioos:station:SCCF:51:1,2010-11-10T05:00:00Z,26.5545,-82.1715,1.995,34.22,1111122 
SCCF RECON,ioos:station:SCCF:51:1,2010-11-10T06:00:00Z,26.5545,-82.1715,2.069,34.34,1111122 
SCCF RECON,ioos:station:SCCF:51:1,2010-11-10T07:00:00Z,26.5545,-82.1715,2.113,34.28,1111122 
SCCF RECON,ioos:station:SCCF:51:1,2010-11-10T08:00:00Z,26.5545,-82.1715,2.102,34.28,1111122 
SCCF RECON,ioos:station:SCCF:51:1,2010-11-10T09:00:00Z,26.5545,-82.1715,2.042,34.21,1111122 
SCCF RECON,ioos:station:SCCF:51:1,2010-11-10T10:00:00Z,26.5545,-82.1715,1.957,33.65,1111122 
SCCF RECON,ioos:station:SCCF:51:1,2010-11-10T11:00:00Z,26.5545,-82.1715,1.848,33.51,1111122 
SCCF RECON,ioos:station:SCCF:51:1,2010-11-10T12:00:00Z,26.5545,-82.1715,1.737,33.4,1111122 
SCCF RECON,ioos:station:SCCF:51:1,2010-11-10T13:00:00Z,26.5545,-82.1715,1.636,33.28,1111122 
SCCF RECON,ioos:station:SCCF:51:1,2010-11-10T14:00:00Z,26.5545,-82.1715,1.545,33.06,1111122 
SCCF RECON,ioos:station:SCCF:51:1,2010-11-10T15:00:00Z,26.5545,-82.1715,1.48,32.94,1111122 
SCCF RECON,ioos:station:SCCF:51:1,2010-11-10T16:00:00Z,26.5545,-82.1715,1.488,33.0,1111122 
SCCF RECON,ioos:station:SCCF:51:1,2010-11-10T17:00:00Z,26.5545,-82.1715,1.561,33.08,1111122 
SCCF RECON,ioos:station:SCCF:51:1,2010-11-10T18:00:00Z,26.5545,-82.1715,1.665,33.52,1111122 
SCCF RECON,ioos:station:SCCF:51:1,2010-11-10T19:00:00Z,26.5545,-82.1715,1.776,33.97,1111122 
SCCF RECON,ioos:station:SCCF:51:1,2010-11-10T20:00:00Z,26.5545,-82.1715,1.855,33.8,1111122 
SCCF RECON,ioos:station:SCCF:51:1,2010-11-10T21:00:00Z,26.5545,-82.1715,1.904,34.07,1111122 
SCCF RECON,ioos:station:SCCF:51:1,2010-11-10T22:00:00Z,26.5545,-82.1715,1.913,34.07,1111122 
SCCF RECON,ioos:station:SCCF:51:1,2010-11-10T23:00:00Z,26.5545,-82.1715,1.902,33.74,1111122 
SCCF RECON,ioos:station:SCCF:51:1,2010-11-11T00:00:00Z,26.5545,-82.1715,1.89,33.24,1111122 
SCCF RECON,ioos:station:SCCF:51:1,2010-11-11T01:00:00Z,26.5545,-82.1715,1.87,33.22,1111122 
SCCF RECON,ioos:station:SCCF:51:1,2010-11-11T02:00:00Z,26.5545,-82.1715,1.872,33.59,1111122 
SCCF RECON,ioos:station:SCCF:51:1,2010-11-11T03:00:00Z,26.5545,-82.1715,1.914,33.84,1111122 
SCCF RECON,ioos:station:SCCF:51:1,2010-11-11T04:00:00Z,26.5545,-82.1715,1.947,33.75,1111122 
SCCF RECON,ioos:station:SCCF:51:1,2010-11-11T05:00:00Z,26.5545,-82.1715,1.986,34.06,1111122 
SCCF RECON,ioos:station:SCCF:51:1,2010-11-11T06:00:00Z,26.5545,-82.1715,2.034,33.94,1111122 
SCCF RECON,ioos:station:SCCF:51:1,2010-11-11T07:00:00Z,26.5545,-82.1715,2.079,34.02,1111122 
SCCF RECON,ioos:station:SCCF:51:1,2010-11-11T08:00:00Z,26.5545,-82.1715,2.084,34.06,1111122 
SCCF RECON,ioos:station:SCCF:51:1,2010-11-11T09:00:00Z,26.5545,-82.1715,2.05,34.02,1111122 
SCCF RECON,ioos:station:SCCF:51:1,2010-11-11T10:00:00Z,26.5545,-82.1715,1.992,33.94,1111122 
SCCF RECON,ioos:station:SCCF:51:1,2010-11-11T11:00:00Z,26.5545,-82.1715,1.92,34.07,1111122 
SCCF RECON,ioos:station:SCCF:51:1,2010-11-11T12:00:00Z,26.5545,-82.1715,1.835,33.71,1111122 
SCCF RECON,ioos:station:SCCF:51:1,2010-11-11T13:00:00Z,26.5545,-82.1715,1.742,33.53,1111122 
SCCF RECON,ioos:station:SCCF:51:1,2010-11-11T14:00:00Z,26.5545,-82.1715,1.648,33.2,1111122 
SCCF RECON,ioos:station:SCCF:51:1,2010-11-11T15:00:00Z,26.5545,-82.1715,1.567,32.99,1111122 
SCCF RECON,ioos:station:SCCF:51:1,2010-11-11T16:00:00Z,26.5545,-82.1715,1.526,32.99,1111122 